Location: *
(45.9500°N, 9.0833°E)
Time: 20:23:19
(UTC+00:00)

Vanguard 2 Rocket - Pass Details

Date: 22 June 2021
Orbit: 555 x 3325 km, 32.9° (Epoch: 30 July)

Event Time Altitude Azimuth Distance (km) Brightness Sun altitude
Rises 14:34:43 0° 185° (S) 6,644 11.5 46.0°
Reaches altitude 10° 14:41:30 10° 168° (SSE) 5,993 11.2 44.8°
Maximum altitude 14:52:00 17° 134° (SE) 5,635 10.8 43.0°
Drops below altitude 10° 15:02:40 10° 102° (ESE) 6,175 10.8 41.2°
Sets 15:09:40 0° 86° (E) 6,933 10.9 40.0°
